Location: Couloutre
(47.4081°N, 3.2259°E)
Time: 18:29:03
(UTC+00:00)

STARLINK-26 - Pass Details

Date: 27 February 2020
Orbit: 434 x 437 km, 53.0° (Epoch: 29 March)

Event Time Altitude Azimuth Distance (km) Brightness Sun altitude
Rises 19:05:26 0° 297° (WNW) 2,418 8.2 -17.2°
Reaches altitude 10° 19:07:35 10° 302° (WNW) 1,548 6.9 -17.6°
Maximum altitude 19:11:00 55° 21° (NNE) 530 3.4 -18.1°
Enters shadow 19:11:27 50° 55° (NE) 564 3.3 -18.2°
